| time (UTC) | temp F | wind direction | speed knots | gust knots | rain 1hr in | rain 24hr in | rain mn in | humidity % | barometer mb |
| 20260504050001 | 57 | 190 | 0.0 | 2.6 | 0.00 | 0.00 | 0.00 | 46 | 1000.6 |
| 20260504044545 | 57 | 186 | 0.0 | 1.7 | 0.00 | 0.00 | 0.00 | 47 | 1000.9 |
| 20260504043043 | 57 | 166 | 0.0 | 2.6 | 0.00 | 0.00 | 0.00 | 47 | 1001.1 |
| 20260504041540 | 57 | 186 | 0.0 | 0.9 | 0.00 | 0.00 | 0.00 | 47 | 1001.4 |
| 20260504040041 | 57 | 191 | 0.0 | 0.9 | 0.00 | 0.00 | 0.00 | 47 | 1001.8 |
| 20260504034545 | 57 | 193 | 0.0 | 0.9 | 0.00 | 0.00 | 0.00 | 46 | 1002.0 |
| 20260504033033 | 58 | 191 | 0.0 | 1.7 | 0.00 | 0.00 | 0.00 | 46 | 1002.3 |
| 20260504031531 | 58 | 200 | 0.0 | 0.0 | 0.00 | 0.00 | 0.00 | 45 | 1002.5 |
| 20260504030037 | 59 | 201 | 0.0 | 0.9 | 0.00 | 0.00 | 0.00 | 42 | 1002.6 |
| 20260504024513 | 59 | 211 | 0.0 | 0.9 | 0.00 | 0.00 | 0.00 | 41 | 1002.6 |
| 20260504023009 | 61 | 250 | 0.0 | 0.0 | 0.00 | 0.00 | 0.00 | 38 | 1002.7 |
| 20260504021505 | 63 | 250 | 0.0 | 0.9 | 0.00 | 0.00 | 0.00 | 35 | 1002.7 |
| 20260504020001 | 64 | 215 | 0.0 | 0.9 | 0.00 | 0.00 | 0.00 | 33 | 1002.7 |
| 20260504014600 | 65 | 233 | 0.0 | 2.6 | 0.00 | 0.00 | 0.00 | 32 | 1002.7 |
| 20260504013059 | 66 | 260 | 0.9 | 2.6 | 0.00 | 0.00 | 0.00 | 31 | 1002.9 |
| 20260504011555 | 67 | 267 | 0.0 | 4.3 | 0.00 | 0.00 | 0.00 | 30 | 1002.9 |
| 20260504010057 | 68 | 257 | 0.0 | 3.5 | 0.00 | 0.00 | 0.00 | 29 | 1002.9 |
| 20260504004538 | 69 | 276 | 1.7 | 6.1 | 0.00 | 0.00 | 0.00 | 28 | 1003.0 |
| 20260504003043 | 69 | 262 | 3.5 | 8.7 | 0.00 | 0.00 | 0.00 | 28 | 1003.0 |
| 20260504001547 | 70 | 205 | 0.9 | 6.1 | 0.00 | 0.00 | 0.00 | 28 | 1003.1 |
| 20260504000035 | 70 | 274 | 2.6 | 9.6 | 0.00 | 0.00 | 0.00 | 26 | 1003.2 |
| 20260503234535 | 70 | 285 | 2.6 | 8.7 | 0.00 | 0.00 | 0.00 | 25 | 1003.2 |
| 20260503233034 | 71 | 260 | 4.3 | 9.6 | 0.00 | 0.00 | 0.00 | 24 | 1003.3 |
| 20260503231544 | 71 | 321 | 1.7 | 6.1 | 0.00 | 0.00 | 0.00 | 25 | 1003.6 |
| 20260503230030 | 71 | 264 | 4.3 | 9.6 | 0.00 | 0.00 | 0.00 | 25 | 1003.6 |
| 20260503224511 | 71 | 302 | 2.6 | 10.4 | 0.00 | 0.00 | 0.00 | 25 | 1003.7 |
| 20260503223020 | 71 | 285 | 3.5 | 13.0 | 0.00 | 0.00 | 0.00 | 24 | 1003.7 |
| 20260503221558 | 71 | 260 | 1.7 | 9.6 | 0.00 | 0.00 | 0.00 | 25 | 1003.8 |
| 20260503214558 | 71 | 278 | 3.5 | 10.4 | 0.00 | 0.00 | 0.00 | 27 | 1003.8 |
| 20260503213123 | 71 | 259 | 5.2 | 11.3 | 0.00 | 0.00 | 0.00 | 27 | 1003.9 |
| 20260503211618 | 71 | 332 | 1.7 | 5.2 | 0.00 | 0.00 | 0.00 | 28 | 1004.0 |
| 20260503210052 | 71 | 295 | 3.5 | 14.8 | 0.00 | 0.00 | 0.00 | 28 | 1004.1 |
| 20260503204602 | 71 | 292 | 4.3 | 9.6 | 0.00 | 0.00 | 0.00 | 31 | 1004.2 |
| 20260503203049 | 70 | 332 | 1.7 | 9.6 | 0.00 | 0.00 | 0.00 | 29 | 1004.3 |
| 20260503201531 | 71 | 13 | 4.3 | 11.3 | 0.00 | 0.00 | 0.00 | 26 | 1004.6 |
| 20260503200030 | 70 | 267 | 1.7 | 7.8 | 0.00 | 0.00 | 0.00 | 30 | 1004.6 |
| 20260503194528 | 70 | 23 | 2.6 | 10.4 | 0.00 | 0.00 | 0.00 | 26 | 1004.9 |
| 20260503193025 | 70 | 281 | 0.9 | 11.3 | 0.00 | 0.00 | 0.00 | 28 | 1005.0 |
| 20260503191523 | 70 | 359 | 3.5 | 10.4 | 0.00 | 0.00 | 0.00 | 31 | 1005.0 |
| 20260503190021 | 70 | 332 | 3.5 | 8.7 | 0.00 | 0.00 | 0.00 | 33 | 1005.0 |
| 20260503184518 | 69 | 262 | 3.5 | 9.6 | 0.00 | 0.00 | 0.00 | 34 | 1005.1 |
| 20260503183016 | 69 | 347 | 2.6 | 12.2 | 0.00 | 0.00 | 0.00 | 35 | 1005.2 |
| 20260503181501 | 69 | 302 | 4.3 | 12.2 | 0.00 | 0.00 | 0.00 | 37 | 1005.3 |
| 20260503180100 | 69 | 284 | 2.6 | 9.6 | 0.00 | 0.00 | 0.00 | 38 | 1005.3 |
| 20260503174613 | 69 | 267 | 4.3 | 9.6 | 0.00 | 0.00 | 0.00 | 38 | 1005.3 |
| 20260503173130 | 69 | 252 | 0.9 | 7.0 | 0.00 | 0.00 | 0.00 | 39 | 1005.5 |
| 20260503171554 | 68 | 255 | 2.6 | 13.0 | 0.00 | 0.00 | 0.00 | 39 | 1005.5 |
| 20260503081518 | 60 | 197 | 1.7 | 11.3 | 0.00 | 0.00 | 0.00 | 44 | 1004.7 |
| 20260503071512 | 61 | 217 | 2.6 | 10.4 | 0.00 | 0.00 | 0.00 | 47 | 1005.4 |